FALCON 9 DEB (53755 NORAD) Tracking and Keplerian Element Data

This shows tracking and keplerian element data for the satellite.

Feedback or suggestion? Click here.




ElementValue
Catalog53755
NameFALCON 9 DEB
Epoch Orbit583
Epoch Day284.52936181
Epoch Year2022
RAAN86.6
Inclination53.1995
Eccentricity0.0009913
Argument of Perigee315.3898
Mean Anonmoly44.6344
Mean Motion16.22111535
Decay Rate0.02056621
L11 53755U 22107BH 22284.52936181 .02056621 11871-4 86777-3 0 9992
L22 53755 53.1995 86.6000 0009913 315.3898 44.6344 16.22111535 5836



Live tracking and technical data element details for FALCON 9 DEB (NORAD 53755). FALCON 9 DEB can be tracked NOW for your location showing map with azimuth and elevation plus other details from your city location.







IsCatalogInMostPopularTable: catalog: 53755, numindb: -1

Insert: records affected: 1


GetName: 53755 FALCON 9 DEB

Hit Count: inserted at: Mon, 28 Nov 2022 05:52:50 GMT